Weather History for Pompano Beach, FL

Change the Weather History Date:

Monday, February 6, 2012

  Actual Average Record
Temperature  
Mean Temperature 72 °F -  
Max Temperature 77 °F 77 °F 89 °F (1985)
Min Temperature 68 °F 58 °F 39 °F (1954)
Cooling Degree Days 8    
Growing Degree Days 22 (Base 50)    
Moisture  
Dew Point 70 °F    
Average Humidity 90    
Maximum Humidity 100    
Minimum Humidity 76    
Precipitation  
Precipitation 1.93 in - - ()
Sea Level Pressure  
Sea Level Pressure 30.05 in    
Wind  
Wind Speed 7 mph (ESE)    
Max Wind Speed 17 mph    
Max Gust Speed 24 mph    
Visibility 7 miles    
Events Fog , Rain , Thunderstorm    
Averages and records for this station are not official NWS values.
T = Trace of Precipitation, MM = Missing Value Source: NWS Daily Summary

Daily Weather History Graph

Daily Weather History Graph

Search for Another Location

Airport:

Trip Planner

Search our weather history database for the weather conditions in past years. The results will help you decide how hot, cold, wet, or windy it might be!

Date:

Astronomy

Feb. 06, 2012 Rise Set
Actual Time 7:02 AM EST 6:06 PM EST
Civil Twilight 6:38 AM EST 6:30 PM EST
Nautical Twilight 6:11 AM EST 6:58 PM EST
Astronomical Twilight 5:43 AM EST 7:25 PM EST
Moon 5:09 PM EST (2/6) 5:50 AM EST (2/6)
Length of Visible Light 11h 52m
Length of Day
11h 04m
Waxing Gibbous, 98% of the Moon is Illuminated
Feb 6
Waxing Gibbous
Feb 7
Full
Feb 14
Last Quarter
Feb 21
New
Feb 29
First Quarter

Hourly Weather History & Observations

Time (EST) Temp. Dew Point Humidity Pressure Visibility Wind Dir Wind Speed Gust Speed Precip Events Conditions
12:20 AM 75.2 °F 71.6 °F 89% 30.04 in 10.0 mi East 4.6 mph - N/A   Scattered Clouds
12:53 AM 75.0 °F 71.1 °F 87% 30.03 in 10.0 mi ESE 5.8 mph - N/A   Clear
1:53 AM 75.0 °F 71.1 °F 87% 30.01 in 10.0 mi NE 4.6 mph - N/A   Clear
2:53 AM 73.9 °F 71.1 °F 91% 30.00 in 10.0 mi East 4.6 mph - N/A   Clear
3:48 AM 75.2 °F 71.6 °F 89% 30.00 in 10.0 mi ESE 10.4 mph - N/A   Mostly Cloudy
3:53 AM 75.0 °F 70.0 °F 84% 30.01 in 10.0 mi ESE 6.9 mph - N/A   Mostly Cloudy
4:08 AM 75.2 °F 69.8 °F 83% 30.00 in 10.0 mi East 4.6 mph - N/A   Scattered Clouds
4:53 AM 75.0 °F 66.9 °F 76% 30.00 in 10.0 mi ESE 4.6 mph - 0.00 in Rain Light Rain
5:53 AM 75.0 °F 70.0 °F 84% 30.01 in 10.0 mi ESE 6.9 mph - 0.00 in Rain Light Rain
6:53 AM 75.0 °F 71.1 °F 87% 30.03 in 10.0 mi ESE 10.4 mph - 0.00 in   Partly Cloudy
8:23 AM 69.8 °F 68.0 °F 94% 30.05 in 1.8 mi East 17.3 mph 24.2 mph 0.16 in Rain Heavy Rain
8:34 AM 69.8 °F 69.8 °F 100% 30.06 in 1.2 mi NE 13.8 mph - 0.34 in Rain Heavy Rain
8:46 AM 71.6 °F 71.6 °F 100% 30.06 in 3.0 mi East 11.5 mph - 0.41 in Rain Heavy Rain
8:53 AM 72.0 °F 72.0 °F 100% 30.06 in 6.0 mi East 9.2 mph 16.1 mph 0.42 in Rain Light Rain
9:18 AM 73.4 °F 71.6 °F 94% 30.06 in 10.0 mi ESE 12.7 mph - 0.03 in Rain Light Rain
9:53 AM 75.0 °F 70.0 °F 84% 30.08 in 10.0 mi SE 13.8 mph - 0.03 in   Mostly Cloudy
10:53 AM 77.0 °F 71.1 °F 82% 30.08 in 10.0 mi SE 11.5 mph - N/A   Mostly Cloudy
11:29 AM 75.2 °F 69.8 °F 83% 30.08 in 10.0 mi SE 11.5 mph - N/A Thunderstorm Mostly Cloudy
11:44 AM 73.4 °F 71.6 °F 94% 30.08 in 5.0 mi SW 6.9 mph - 0.02 in Rain Light Rain
11:53 AM 73.0 °F 71.1 °F 93% 30.08 in 5.0 mi South 9.2 mph - 0.04 in Rain Rain
11:56 AM 71.6 °F 71.6 °F 100% 30.08 in 1.5 mi South 15.0 mph 19.6 mph 0.12 in Rain Heavy Rain
12:03 PM 71.6 °F 69.8 °F 94% 30.08 in 0.5 mi SSE 15.0 mph - 0.51 in Fog , Rain Heavy Rain
12:10 PM 71.6 °F 69.8 °F 94% 30.08 in 0.5 mi SSE 13.8 mph 20.7 mph 0.78 in Fog , Rain Heavy Rain
12:17 PM 69.8 °F 69.8 °F 100% 30.07 in 1.0 mi East 8.1 mph 20.7 mph 0.89 in Rain Heavy Rain
12:24 PM 69.8 °F 69.8 °F 100% - 3.0 mi Variable 3.5 mph - 0.90 in Rain Rain
12:34 PM 71.6 °F 69.8 °F 94% - 9.0 mi Calm Calm - 0.91 in Rain Light Rain
12:53 PM 72.0 °F 69.1 °F 91% - 1.0 mi SE 9.2 mph 19.6 mph 1.12 in Rain Heavy Rain
1:01 PM 68.0 °F 66.2 °F 94% - 0.8 mi Calm Calm - 0.11 in Rain Rain
1:05 PM 68.0 °F 66.2 °F 94% - 2.0 mi Calm Calm - 0.13 in Rain Heavy Rain
1:13 PM 69.8 °F 66.2 °F 88% - 6.0 mi NW 3.5 mph - 0.14 in Rain Light Rain
1:18 PM 69.8 °F 68.0 °F 94% - 2.0 mi NW 4.6 mph - 0.19 in Rain Rain
1:29 PM 71.6 °F 69.8 °F 94% - 7.0 mi NNE 3.5 mph - 0.20 in Rain Light Rain
1:36 PM 71.6 °F 71.6 °F 100% - 10.0 mi NNE 3.5 mph - 0.21 in   Mostly Cloudy
1:53 PM 72.0 °F 72.0 °F 100% - 10.0 mi Calm Calm - 0.21 in   Mostly Cloudy
2:53 PM 77.0 °F 71.1 °F 82% - 10.0 mi SSE 9.2 mph - N/A   Mostly Cloudy
3:27 PM 73.4 °F 71.6 °F 94% - 2.5 mi SSE 3.5 mph - 0.03 in Rain Heavy Rain
3:38 PM 75.2 °F 71.6 °F 89% - 8.0 mi SSE 10.4 mph - 0.04 in Rain Light Rain
3:53 PM 75.0 °F 71.1 °F 87% - 10.0 mi SE 6.9 mph - 0.04 in   Mostly Cloudy
4:53 PM 75.9 °F 70.0 °F 82% - 10.0 mi SE 9.2 mph - N/A   Mostly Cloudy
5:53 PM 75.0 °F 70.0 °F 84% - 10.0 mi SE 9.2 mph - N/A   Mostly Cloudy
6:53 PM 73.9 °F 71.1 °F 91% - 10.0 mi ESE 6.9 mph - 0.06 in   Overcast
7:53 PM 75.0 °F 71.1 °F 87% - 10.0 mi East 5.8 mph - N/A   Overcast
8:53 PM 75.0 °F 70.0 °F 84% - 10.0 mi ESE 10.4 mph - N/A   Overcast
9:53 PM 75.0 °F 71.1 °F 87% - 10.0 mi ESE 8.1 mph - N/A   Overcast
10:18 PM 75.2 °F 71.6 °F 89% - 10.0 mi ESE 10.4 mph - N/A   Overcast
10:26 PM 75.2 °F 71.6 °F 89% - 10.0 mi ESE 9.2 mph - N/A   Overcast
10:53 PM 75.0 °F 71.1 °F 87% - 10.0 mi ESE 13.8 mph 20.7 mph N/A   Overcast
11:10 PM 73.4 °F 71.6 °F 94% - 10.0 mi East 8.1 mph - 0.01 in   Overcast
11:28 PM 75.2 °F 71.6 °F 89% - 10.0 mi ESE 11.5 mph - 0.01 in   Overcast
11:53 PM 75.0 °F 71.1 °F 87% - 10.0 mi ESE 12.7 mph - 0.01 in Rain Light Rain